User: anonymous   Login
Location: Burgberg
(50.1428°N, 11.0671°E)
Time: 12:19:35
(UTC+00:00)
Language:

STARLINK-61 - Orbit

View from above orbital plane
View from above orbital plane
View from above satellite
View from above satellite

Ground track
Ground track

The orbit data is extracted from the following two-line orbital elements,

1 44249U 19029Q   20089.25001157  .00118084  00000-0  56817-2 0  9995
2 44249  53.0017 204.4996 0008915 119.1832 138.6262 15.17834452 47103
Epoch (UTC): 29 March 2020 06:00:01
Eccentricity: 0.0008915
inclination: 53.0017°
perigee height: 506 km
apogee height: 518 km
right ascension of ascending node: 204.4996°
argument of perigee: 119.1832°
revolutions per day: 15.17834452
mean anomaly at epoch: 138.6262°
orbit number at epoch: 4710

The dashed part of the orbit path shows where the satellite is in the earth's shadow,  

DLR